THORAD DELTA 1 DEB, 8311

Orbit data source: Space-Track

THORAD DELTA 1 DEB, 8311 is space debris in SSO originally from a launch on Fri, 15 Nov 1974 UTC launched from the Air Force Western Test Range (AFWTR). Debris objects in space refer to the collection of defunct objects orbiting the Earth. Examples of debris include non-operational satellites, rocket bodies, and fragments generated from explosions, collisions, or faulty payload assembly.

Loading next visibility...
Identifier
8311, 1974-089BU
Orbit
SSO
Country
Flag of USUS
Related business
Manufacturer
Unknown
Mission
Spacecraft
Bus & Motor
Unknown
Mass
Unknown
Launch date (UTC)
1974-11-15 (51 years ago)
Launch vehicle
Unknown
Launch site
Air Force Western Test Range (AFWTR)
Object type
Payload
Rocket body
Debris
Shape & HBR
Unknown shape, 1.5 m
Radar Cross Section
Large (>1 m²)

Expand to show TLE details & history
Last TLE update: 17 hours ago

TLE from 17 hours ago
0 THORAD DELTA 1 DEB
1 08311U 74089BU  26071.87816574 -.00000008  00000-0  26492-3 0  9998
2 08311 102.1512  45.4362 0036473 188.5927 198.8922 12.45547485333243
Epoch: 2026-03-12T21:04Z
TLE epoch observation values (Epoch: 2026-03-12T21:04:33.519Z)
Latitude
26.72408°
Longitude
-87.41816°
Altitude
1,513.258 km
Speed
7.098 km/s
True Right ascension
02h 36m 58s
True Declination
26° 35' 58"
Sunlit
Object was in daylight at epoch
Visualization orbit readout
Latitude
Unknown
Longitude
Unknown
Altitude
Unknown
Speed
Unknown
Apparent Right ascension
Unknown
Apparent Declination
Unknown
Sunlit
N/A
Visualization observer readout
Local Sidereal Time
18:39:05
Azimuth
Unknown
Elevation
Unknown
Doppler factor
Unknown
Orbital elements
Apogee altitude
1,509.414 km
Perigee altitude
1,452.087 km
Semi-major axis
7,858.888 km
Eccentricity
0.00365
Inclination
102.1512°
RAAN
45.4362°
Arg. of periapsis
188.5927°
True anomaly
198.75745°
Mean anomaly
198.8922°
Eccentric anomaly
198.82477°
Mean motion
3.11531 °/min
Orbital period
115.56 mins
BSTAR
0.00026492
Loading maneuver chart data...
Computing Atmospheric mass density...

Documentation

Showing up to 5 results
|